Weather History for Moline, IL

Change the Weather History Date:

Wednesday, April 17, 2013

  Actual Average Record
Temperature  
Mean Temperature 50 °F 52 °F  
Max Temperature 57 °F 63 °F 87 °F (2004)
Min Temperature 42 °F 41 °F 18 °F (1875)
Degree Days  
Heating Degree Days 15 13  
Month to date heating degree days 308 277  
Since 1 July heating degree days 5975 5879  
Cooling Degree Days 0 1  
Month to date cooling degree days 0 1  
Year to date cooling degree days 0 2  
Moisture  
Dew Point 42 °F    
Average Humidity 83    
Maximum Humidity 100    
Minimum Humidity 65    
Precipitation  
Precipitation 2.62 in 0.13 in 2.62 in (2013)
Month to date precipitation 5.29 1.95  
Year to date precipitation 13.26 7.90  
Snow  
Snow 0.00 in 0.00 in - ()
Month to date snowfall 0.0 0.8  
Since 1 July snowfall 34.5 31.5  
Snow Depth 0.00 in    
Sea Level Pressure  
Sea Level Pressure 29.98 in    
Wind  
Wind Speed 16 mph (ENE)    
Max Wind Speed 30 mph    
Max Gust Speed 40 mph    
Visibility 6 miles    
Events Rain , Thunderstorm    
T = Trace of Precipitation, MM = Missing Value Source: NWS Daily Summary

Daily Weather History Graph

Daily Weather History Graph

Search for Another Location

Airport:

Trip Planner

Search our weather history database for the weather conditions in past years. The results will help you decide how hot, cold, wet, or windy it might be!

Date:

Astronomy

Apr. 17, 2013 Rise Set
Actual Time 6:18 AM CDT 7:44 PM CDT
Civil Twilight 5:49 AM CDT 8:13 PM CDT
Nautical Twilight 5:15 AM CDT 8:48 PM CDT
Astronomical Twilight 4:38 AM CDT 9:25 PM CDT
Moon 11:31 AM CDT (4/17) 1:24 AM CDT (4/17)
Length of Visible Light 14h 23m
Length of Day
13h 26m
Waxing Crescent, 42% of the Moon is Illuminated
Apr 17
Waxing Crescent
Apr 18
First Quarter
Apr 25
Full
May 2
Last Quarter
May 9
New

Hourly Weather History & Observations

Time (CDT) Temp. Windchill Dew Point Humidity Pressure Visibility Wind Dir Wind Speed Gust Speed Precip Events Conditions
12:52 AM 50.0 °F - 39.0 °F 66% 30.22 in 10.0 mi East 15.0 mph - N/A   Overcast
1:52 AM 46.9 °F - 37.0 °F 68% 30.24 in 10.0 mi East 18.4 mph 24.2 mph N/A   Overcast
2:52 AM 45.0 °F 38.5 °F 37.0 °F 74% 30.23 in 10.0 mi East 13.8 mph - N/A   Overcast
3:52 AM 45.0 °F 37.9 °F 34.0 °F 65% 30.20 in 10.0 mi East 16.1 mph 24.2 mph N/A   Overcast
4:52 AM 45.0 °F 38.2 °F 34.0 °F 65% 30.18 in 10.0 mi East 15.0 mph - 0.00 in Rain Light Rain
5:22 AM 44.6 °F 40.2 °F 33.8 °F 66% 30.19 in 10.0 mi ENE 8.1 mph 21.9 mph 0.00 in Thunderstorm Overcast
5:52 AM 44.1 °F 37.1 °F 35.1 °F 71% 30.18 in 10.0 mi ENE 15.0 mph - 0.00 in Thunderstorm Overcast
6:13 AM 44.6 °F 38.4 °F 35.6 °F 71% 30.16 in 10.0 mi ENE 12.7 mph - N/A Thunderstorm Overcast
6:52 AM 42.1 °F 34.2 °F 36.0 °F 79% 30.17 in 5.0 mi East 16.1 mph 21.9 mph 0.12 in Rain , Thunderstorm Thunderstorms and Rain
7:09 AM 42.8 °F 35.1 °F 37.4 °F 81% 30.15 in 10.0 mi East 16.1 mph 24.2 mph 0.02 in Rain Light Rain
7:52 AM 42.1 °F 32.6 °F 37.0 °F 82% 30.12 in 10.0 mi East 23.0 mph 33.4 mph 0.03 in   Overcast
7:59 AM 42.8 °F 33.5 °F 37.4 °F 81% 30.12 in 10.0 mi East 23.0 mph 33.4 mph N/A Thunderstorm Overcast
8:37 AM 42.8 °F 37.0 °F 37.4 °F 81% 30.13 in 10.0 mi NE 10.4 mph - 0.08 in   Overcast
8:50 AM 42.8 °F 39.3 °F 37.4 °F 81% 30.13 in 8.0 mi NNE 5.8 mph - 0.08 in Rain , Thunderstorm Light Rain
8:52 AM 42.1 °F 38.4 °F 37.9 °F 85% 30.15 in 8.0 mi NNE 5.8 mph - 0.09 in Rain , Thunderstorm Light Rain
9:01 AM 42.8 °F 35.1 °F 37.4 °F 81% 30.10 in 4.0 mi ENE 16.1 mph - 0.03 in Rain , Thunderstorm Heavy Rain
9:19 AM 42.8 °F 35.8 °F 37.4 °F 81% 30.11 in 9.0 mi East 13.8 mph - 0.05 in Rain , Thunderstorm Light Rain
9:52 AM 42.1 °F 33.1 °F 39.0 °F 89% 30.07 in 7.0 mi East 20.7 mph - 0.06 in   Overcast
10:11 AM 42.8 °F 34.0 °F 39.2 °F 87% 30.04 in 10.0 mi East 20.7 mph - N/A   Overcast
10:52 AM 43.0 °F 34.8 °F 39.0 °F 86% 30.04 in 9.0 mi East 18.4 mph - 0.00 in Rain Light Rain
11:32 AM 42.8 °F 34.8 °F 39.2 °F 87% 30.00 in 6.0 mi East 17.3 mph - 0.01 in Rain , Thunderstorm Light Rain
11:45 AM 42.8 °F 35.4 °F 39.2 °F 87% 30.01 in 1.8 mi East 15.0 mph - 0.03 in Rain , Thunderstorm Light Rain
11:52 AM 42.1 °F 37.1 °F 39.9 °F 92% 30.06 in 2.0 mi North 8.1 mph 21.9 mph 0.06 in Rain , Thunderstorm Heavy Thunderstorms and Rain
12:00 PM 42.8 °F 38.0 °F 39.2 °F 87% 30.07 in 6.0 mi NW 8.1 mph - 0.04 in Rain , Thunderstorm Light Thunderstorms and Rain
12:08 PM 42.8 °F 36.2 °F 39.2 °F 87% 30.10 in 5.0 mi NW 12.7 mph - 0.05 in Rain , Thunderstorm Light Thunderstorms and Rain
12:19 PM 42.8 °F 37.0 °F 39.2 °F 87% 30.08 in 2.0 mi NNW 10.4 mph - 0.06 in Rain , Thunderstorm Light Rain
12:28 PM 42.8 °F 35.4 °F 41.0 °F 93% 30.09 in 2.0 mi NW 15.0 mph 20.7 mph 0.07 in Rain Light Rain
12:36 PM 42.8 °F 33.8 °F 41.0 °F 93% 30.21 in 2.0 mi WNW 21.9 mph 34.5 mph 0.07 in Rain , Thunderstorm Light Thunderstorms and Rain
12:42 PM 42.8 °F 34.8 °F 41.0 °F 93% 30.11 in 1.0 mi NNW 17.3 mph 34.5 mph 0.12 in Rain , Thunderstorm Heavy Thunderstorms and Rain
12:52 PM 42.1 °F 34.5 °F 41.0 °F 96% 30.13 in 1.5 mi NNW 15.0 mph 21.9 mph 0.25 in Rain , Thunderstorm Heavy Thunderstorms and Rain
1:01 PM 42.8 °F 35.4 °F 39.2 °F 87% 30.10 in 1.5 mi NE 15.0 mph 20.7 mph 0.11 in Rain , Thunderstorm Heavy Thunderstorms and Rain
1:05 PM 42.8 °F 34.0 °F 39.2 °F 87% 30.04 in 1.5 mi NE 20.7 mph 27.6 mph 0.28 in Rain , Thunderstorm Heavy Thunderstorms and Rain
1:10 PM 42.8 °F 35.1 °F 39.2 °F 87% 30.04 in 1.5 mi ENE 16.1 mph 27.6 mph 0.35 in Rain , Thunderstorm Heavy Thunderstorms and Rain
1:22 PM 42.8 °F 34.5 °F 39.2 °F 87% 30.03 in - ENE 18.4 mph - 0.42 in Rain , Thunderstorm Thunderstorms and Rain
1:52 PM 43.0 °F 36.0 °F 41.0 °F 93% 30.01 in 10.0 mi ENE 13.8 mph 23.0 mph 0.51 in Rain , Thunderstorm Light Rain
2:14 PM 44.6 °F 37.2 °F 41.0 °F 87% 30.00 in 7.0 mi East 17.3 mph 20.7 mph 0.02 in Rain Light Rain
2:52 PM 44.1 °F 36.8 °F 41.0 °F 89% 29.99 in 8.0 mi East 16.1 mph - 0.08 in Rain Light Rain
3:37 PM 44.6 °F 37.4 °F 42.8 °F 93% 29.95 in 10.0 mi East 16.1 mph - 0.04 in Rain Light Rain
3:49 PM 44.6 °F 36.9 °F 42.8 °F 93% 29.95 in 10.0 mi ENE 18.4 mph - N/A Rain , Thunderstorm Light Rain
3:52 PM 44.6 °F 38.1 °F 42.8 °F 93% 29.96 in 10.0 mi East 13.8 mph 23.0 mph N/A Rain , Thunderstorm Light Rain
4:03 PM 44.6 °F 38.1 °F 42.8 °F 93% 29.97 in 8.0 mi East 13.8 mph - 0.02 in Rain , Thunderstorm Rain
4:35 PM 44.6 °F 35.5 °F 42.8 °F 93% 29.86 in 6.0 mi East 25.3 mph - 0.10 in Rain Light Rain
4:52 PM 45.0 °F 37.9 °F 43.0 °F 93% 29.87 in 10.0 mi East 16.1 mph - 0.14 in Rain Light Rain
5:09 PM 46.4 °F 40.4 °F 42.8 °F 87% 29.92 in 7.0 mi ESE 13.8 mph - 0.01 in Rain , Thunderstorm Light Rain
5:29 PM 46.4 °F 40.7 °F 44.6 °F 93% 29.91 in 8.0 mi ESE 12.7 mph - 0.05 in Rain Light Rain
5:43 PM 46.4 °F 42.4 °F 44.6 °F 93% 29.92 in 6.0 mi ESE 8.1 mph - 0.07 in Rain , Thunderstorm Rain
5:52 PM 46.0 °F 41.0 °F 45.0 °F 96% 29.96 in 5.0 mi ESE 10.4 mph - 0.09 in Rain , Thunderstorm Light Thunderstorms and Rain
6:05 PM 44.6 °F 38.4 °F 44.6 °F 100% 29.92 in 3.0 mi East 12.7 mph - 0.06 in Rain , Thunderstorm Heavy Rain
6:19 PM 44.6 °F 38.4 °F 42.8 °F 93% 29.89 in 4.0 mi East 12.7 mph - 0.11 in Rain Rain
6:44 PM 44.6 °F 36.9 °F 44.6 °F 100% 29.83 in 4.0 mi East 18.4 mph - 0.16 in Rain , Thunderstorm Thunderstorms and Rain
6:52 PM 46.0 °F 41.4 °F 44.1 °F 93% 29.88 in 3.0 mi SSE 9.2 mph 23.0 mph 0.18 in Rain , Thunderstorm Thunderstorms and Rain
6:59 PM 46.4 °F 39.5 °F 44.6 °F 93% 29.85 in 4.0 mi East 17.3 mph - 0.01 in Rain Rain
7:11 PM 46.4 °F 39.8 °F 44.6 °F 93% 29.82 in 3.0 mi East 16.1 mph - 0.05 in Rain , Thunderstorm Rain
7:18 PM 46.4 °F 41.5 °F 44.6 °F 93% 29.83 in 4.0 mi ESE 10.4 mph - 0.08 in Rain , Thunderstorm Rain
7:25 PM 46.4 °F 40.1 °F 44.6 °F 93% 29.83 in 4.0 mi ESE 15.0 mph - 0.09 in Rain , Thunderstorm Rain
7:52 PM 46.9 °F - 45.0 °F 93% 29.76 in 4.0 mi East 28.8 mph 35.7 mph 0.20 in Rain Rain
8:00 PM 48.2 °F - 46.4 °F 93% 29.77 in 6.0 mi ESE 16.1 mph 35.7 mph 0.02 in Rain Light Rain
8:18 PM 48.2 °F - 46.4 °F 93% 29.82 in 10.0 mi Calm Calm - 0.04 in   Mostly Cloudy
8:52 PM 48.0 °F - 46.9 °F 96% 29.78 in 5.0 mi ENE 11.5 mph - 0.07 in Rain Rain
9:09 PM 48.2 °F - 46.4 °F 93% 29.77 in 5.0 mi ENE 11.5 mph - 0.04 in Rain , Thunderstorm Thunderstorms and Rain
9:28 PM 48.2 °F - 46.4 °F 93% 29.76 in 5.0 mi East 17.3 mph - 0.08 in Rain Rain
9:38 PM 51.8 °F - 48.2 °F 88% 29.73 in 4.0 mi ESE 21.9 mph - 0.10 in Rain , Thunderstorm Rain
9:45 PM 53.6 °F - 51.8 °F 94% 29.74 in 6.0 mi ESE 17.3 mph 26.5 mph 0.12 in Rain , Thunderstorm Light Rain
9:52 PM 54.0 °F - 52.0 °F 93% 29.72 in 8.0 mi ESE 24.2 mph 28.8 mph 0.13 in Rain , Thunderstorm Light Rain
10:06 PM 53.6 °F - 53.6 °F 100% 29.70 in 9.0 mi ESE 17.3 mph 36.8 mph 0.03 in Rain Light Rain
10:24 PM 55.4 °F - 53.6 °F 94% 29.70 in 10.0 mi East 18.4 mph 24.2 mph 0.05 in Rain Light Rain
10:52 PM 55.9 °F - 54.0 °F 93% 29.69 in 10.0 mi East 13.8 mph - 0.06 in Rain Light Rain
11:34 PM 53.6 °F - 53.6 °F 100% 29.74 in 8.0 mi WNW 29.9 mph 40.3 mph 0.04 in Rain , Thunderstorm Light Rain
11:43 PM 51.8 °F - 50.0 °F 94% 29.78 in 4.0 mi WNW 20.7 mph 40.3 mph 0.07 in Rain , Thunderstorm Rain
11:47 PM 50.0 °F - 48.2 °F 94% 29.80 in 2.5 mi WNW 17.3 mph 26.5 mph 0.11 in Rain Heavy Rain
11:52 PM 48.9 °F - 48.0 °F 97% 29.79 in 2.0 mi NNW 18.4 mph 27.6 mph 0.20 in Rain Heavy Rain
11:58 PM 48.2 °F - 48.2 °F 100% 29.78 in 3.0 mi NW 18.4 mph 27.6 mph 0.04 in Rain Rain